Regional Weather Roundup
Issued by NWS San Angelo, TX

Home | Current Version | Previous Version | Text Only | Print | Product List | Glossary On
Versions: 1 2 3 4 5 6 7 8 9 10 11 12 13 14 15 16 17 18 19 20 21 22 23 24 25 26 27 28 29 30 31 32 33 34 35 36 37 38 39 40 41 42 43 44 45 46 47 48 49 50
000
ASUS44 KSJT 301910
RWRSJT
WEST CENTRAL TEXAS REGIONAL WEATHER ROUNDUP
NATIONAL WEATHER SERVICE SAN ANGELO TX
200 PM CDT SAT AUG 30 2014

NOTE: "FAIR" INDICATES FEW OR NO CLOUDS BELOW 12,000 FEET WITH NO
SIGNIFICANT WEATHER AND/OR OBSTRUCTIONS TO VISIBILITY.

TXZ049-054-064>066-071>073-076>078-098-099-113-114-127-128-139-140-
154-155-168>170-302000
...LOCATIONS ACROSS WEST CENTRAL TEXAS...

CITY           SKY/WX    TMP DP  RH WIND       PRES   REMARKS
SAN ANGELO     MOSUNNY   93  62  35 NE7       29.97F
ABILENE        MOSUNNY   96  62  32 VRB6      29.97F
DYESS AFB      MOSUNNY   91  65  41 NE5       29.97F
JUNCTION       MOSUNNY   93  66  40 E13       29.96F
SWEETWATER     MOSUNNY   90  61  38 NE9G16    30.04F
BROWNWOOD      MOSUNNY   91  66  43 N3        29.95F
COLEMAN        CLEAR     92  61  35 NE3       29.97F
SONORA         SUNNY     90  68  48 N6        30.02F
OZONA          FAIR      93  59  31 SE7       30.01F
BRADY          PTSUNNY   90  66  45 NE3       29.97S
$$

TEXAS PANHANDLE/OKLAHOMA PANHANDLE

CITY           SKY/WX    TMP DP  RH WIND       PRES   REMARKS
AMARILLO       MOSUNNY   92  48  22 S10G17    30.05F
BORGER         SUNNY     92  48  22 VRB6      30.01F
CANADIAN       MOSUNNY   90  59  34 CALM      29.98F
DALHART        SUNNY     90  53  28 S16       30.05F
DUMAS          CLEAR     89  52  28 S14       30.04F
GUYMON         NOT AVBL
HEREFORD       CLEAR     91  46  20 S9        30.07F
PAMPA          CLEAR     90  48  23 W8        30.04F
PERRYTON       MOSUNNY   90  56  31 S10G17    30.00F
$$

SOUTHERN PANHANDLE/SOUTH PLAINS/ROLLING PLAINS

CITY           SKY/WX    TMP DP  RH WIND       PRES   REMARKS
LUBBOCK        MOSUNNY   90  51  26 VRB6      30.05F
SNYDER         SUNNY     92  45  19 NE7       30.02F
CHILDRESS      SUNNY     90  66  45 VRB3      29.99F
SEMINOLE       CLEAR     91  45  20 E6        30.06F
$$

PERMIAN BASIN

CITY           SKY/WX    TMP DP  RH WIND       PRES   REMARKS
MIDLAND        PTSUNNY   92  59  33 VRB5      30.02F
ODESSA         MOSUNNY   92  55  28 E10       30.03F
WINK           SUNNY     96  41  15 VRB3G20   29.98F
$$

FAR WEST/SOUTHWEST MOUNTAINS/TRANS PECOS

CITY           SKY/WX    TMP DP  RH WIND       PRES   REMARKS
ALPINE         CLEAR     90  48  23 E8G16     30.16F
DRYDEN           N/A     98  61  29 VRB5      29.95F
EL PASO        MOSUNNY   91  47  21 S6        30.05F
FORT STOCKTON  SUNNY     93  50  23 VRB6      30.01F
GUADALUPE PASS PTSUNNY   83  46  27 VRB6G21   30.20F
MARFA          SUNNY     86  46  25 E7        30.16F
PECOS          CLEAR     95  51  22 N6        29.98F
$$

DALLAS/FORT WORTH METROPLEX

CITY           SKY/WX    TMP DP  RH WIND       PRES   REMARKS
DFW AIRPORT    MOSUNNY   90  71  53 CALM      29.93F
FTW MEACHAM    MOSUNNY   94  69  44 E9        29.92F
DAL-EXECUTIVE  PTSUNNY   91  69  48 E6        29.94F
GRAND PRAIRIE  MOSUNNY   88  68  51 NE5       29.95
ADDISON        PTSUNNY   90  68  48 VRB5      29.95F
MESQUITE       PTCLDY    90  68  48 SE6       29.95F
LANCASTER      CLEAR     87  68  53 CALM      29.96S
$$

NORTH CENTRAL TEXAS

CITY           SKY/WX    TMP DP  RH WIND       PRES   REMARKS
SHRMAN/DENISON PTCLDY    91  67  44 CALM      29.94F
GAINESVILLE    MOSUNNY   87  70  58 SE3       29.96S
BRIDGEPORT     PTCLDY    91  64  40 SE3       29.95F
DENTON         MOSUNNY   90  70  51 VRB3      29.93F
WAXAHACHIE     CLOUDY    86  67  53 NE3       29.96S
GRANBURY       PTCLDY    92  68  45 NE5       29.93F
$$

WESTERN NORTH TEXAS

CITY           SKY/WX    TMP DP  RH WIND       PRES   REMARKS
WICHITA FALLS  SUNNY     92  67  43 W5        29.93F
VERNON         CLEAR     93  64  38 NW6       29.95F
BRECKENRIDGE   PTCLDY    94  63  35 CALM      29.94F HAZE
COMANCHE         N/A     93  65  39 SE6       29.96F
$$

CENTRAL AND SOUTH CENTRAL TEXAS

CITY           SKY/WX    TMP DP  RH WIND       PRES   REMARKS
AUSTIN/BERGSTM PTSUNNY   91  69  48 CALM      29.92F
WACO           MOSUNNY   91  69  48 NE6       29.94F
HILLSBORO      PTCLDY    89  66  46 CALM      29.95S
TEMPLE         MOSUNNY   91  66  43 N6        29.94F
KILLEEN-GRAY   MOSUNNY   91  68  46 SE5       29.94F
FORT HOOD      MOSUNNY   96  69  41 NE6       29.93F
GEORGETOWN     PTSUNNY   91  70  49 VRB6      29.94F
LAGO VISTA     MOCLDY    94  65  38 E6        29.96F
SAN MARCOS     SUNNY     93  68  43 SE8       29.93F
NEW BRAUNFELS  PTSUNNY   93  68  43 SE8       29.91F
RANDOLPH AFB   PTSUNNY   92  67  43 NE8       29.92F
SAN ANTONIO    MOSUNNY   94  68  42 CALM      29.92F
STINSON        PTSUNNY   95  68  41 VRB3      29.90F
PLEASANTON     NOT AVBL
LA GRANGE      MOSUNNY   93  73  50 S6        29.91F
GIDDINGS       PTCLDY    89  69  51 E5        29.98S
$$

EAST TEXAS

CITY           SKY/WX    TMP DP  RH WIND       PRES   REMARKS
PARIS          MOSUNNY   86  66  51 CALM      29.96F
CLARKSVILLE    NOT AVBL
TYLER          PTSUNNY   88  69  53 VRB3      29.94F
LONGVIEW       CLOUDY    85  71  63 N7        29.93F
PALESTINE      MOCLDY    87  71  59 W3        29.95F
NACOGDOCHES    PTSUNNY   86  72  62 NW7       29.94F
$$

TEXAS HILL COUNTRY AND EDWARDS PLATEAU

CITY           SKY/WX    TMP DP  RH WIND       PRES   REMARKS
LLANO          CLEAR     97  63  32 SE8       29.96F
HORSESHOE BAY  FAIR      92  65  40 CALM      29.94F
KERRVILLE      MOSUNNY   92  66  42 SE9       29.96F
FREDERICKSBRG  MOSUNNY   94  61  33 E6        29.96F
ROCKSPRINGS    PTCLDY    91  64  40 E6        30.00F
HONDO          MOSUNNY   95  67  39 VRB3      29.93F
UVALDE         PTCLDY    93  69  44 E7        29.92F
DEL RIO          N/A     96  67  38 VRB7      29.89F
$$

SOUTHEAST TEXAS

CITY           SKY/WX    TMP DP  RH WIND       PRES   REMARKS
COLLEGE STN    MOSUNNY   89  70  53 NE7       29.94F
CALDWELL       PTCLDY    84  72  65 NE6       29.98F
CROCKETT       PTCLDY    90  73  58 N6        29.96F
BRENHAM        MOSUNNY   90  71  53 NE6       29.94F
HUNTSVILLE     MOSUNNY   90  69  50 CALM      29.94F
CONROE         PTSUNNY   89  70  53 VRB6      29.94S
HOUSTON BUSH   PTSUNNY   90  72  55 VRB5      29.93F
HOUSTON HOBBY  CLOUDY    87  73  62 S5        29.93F
PERLAND        CLOUDY    86  73  65 S5        29.96S
WHARTON        MOCLDY    89  72  55 SE9       29.94F
$$

THE UPPER TEXAS COAST

CITY           SKY/WX    TMP DP  RH WIND       PRES   REMARKS
ORANGE         CLOUDY    78  78 100 SE7       29.98S
PORT ARTHUR    CLOUDY    81  76  84 SE10      29.96S
GALVESTON      LGT RAIN  82  77  84 S8        29.96S
ANGLETON       CLOUDY    82  76  81 S9        29.96S
BAY CITY       CLOUDY    84  78  82 SE8       29.96R
$$

TEXAS COASTAL BEND, RIO GRANDE PLAINS DEEP SOUTH TEXAS

CITY           SKY/WX    TMP DP  RH WIND       PRES   REMARKS
VICTORIA       PTSUNNY   93  72  50 CALM      29.92F
BEEVILLE       FAIR      91  70  49 E5        29.90F
ROCKPORT       CLOUDY    85  73  67 SE9       29.92F
PORT ARANSAS   CLOUDY    81  74  79 S6        29.92S
PORT LAVACA    HVY RAIN  76  72  86 SW3       29.94S VSB 1/2
CORPUS CHRISTI CLOUDY    83  76  79 SE6       29.92S
KINGSVILLE NAS CLOUDY    86  76  71 E7        29.91F
COTULLA        MOSUNNY   95  66  38 SE8       29.89F
LAREDO         MOSUNNY   97  69  39 VRB5      29.90F
BROWNSVILLE    LGT RAIN  83  77  82 E10       29.91S
PORT ISABEL    CLOUDY    84  75  74 SE13      29.91R
HEBBRONVILLE   NOT AVBL
MCALLEN        MOSUNNY   90  77  65 SE13      29.89F
WESLACO        NOT AVBL
FALFURRIAS     MOCLDY    77  66  70 E8        29.91S
EDINBURG       CLOUDY    92  73  54 S9        29.89S
$$


USA.gov is the U.S. government's official web portal to all federal, state and local government web resources and services.